Weather in Page

United States     36°54′28″N   111°27′30″W
temp.,
°C
wind,
m/s
gust,
m/s
humid.,
%
clouds,
%
prec.,
mm/h
press.,
hPa
HPBL,
m
25 may, wed
wed2500:00+18nnw23183 0.0 101011
03:00+14nnw22241 0.0 101210
06:00+12ene11275 0.0 101410
09:00+19ene111655 0.0 1015433
12:00+23ene11130 0.0 10141358
15:00+27e12120 0.0 10111642
18:00+29ese33110 0.0 10071343
21:00+24ese33154 0.0 100811
26 may, thu
thu2600:00+20s11200 0.0 101011
03:00+18wnw22235 0.0 101111
06:00+15wnw11265 0.0 101211
09:00+23e00178 0.0 1013287
12:00+29ese121238 0.0 10111030
15:00+33ne25964 0.0 10074128
18:00+34nnw35887 0.0 10044703
21:00+29w441094 0.0 100644
27 may, fri
fri2700:00+22wnw341733 0.0 101036
03:00+19wsw11203 0.0 101111
06:00+17w11240 0.0 101111
09:00+23s11172 0.0 1012381
12:00+30sse361175 0.0 10092619
15:00+34wsw71075 0.0 10054947
18:00+33w11127100 0.0 10034568
21:00+27wsw91511100 0.0 1005373
28 may, sat
sat2800:00+22sw3416100 0.0 100729
03:00+19ssw2222100 0.0 100512
06:00+16s1128100 0.0 100611
09:00+22sse1318100 0.0 1006399
12:00+29ssw811105 0.0 10022929
15:00+32wsw13151111 0.0 9973776
18:00+29wsw151713100 0.0 9963341
21:00+25sw915196 0.0 997430
29 may, sun
sun2900:00+20wsw59291 0.0 998175
03:00+17sw123627 0.0 99812
06:00+14w11420 0.0 99811
09:00+20wsw35280 0.0 9981040
12:00+25w8111748 0.0 9953427
15:00+26w16161794 0.0 9913149
18:00+21w131422100 0.3 9952120
21:00+14s334198 0.5 1000331